Colorado Springs, CO

1:10 AM MDT on March 23, 2017 (GMT -0600)
City Of Colorado Springs Municipal

Weather History for KCOS - April, 2012

Change the Weather History Date:

Thursday, April 5, 2012

  Actual Average Record
Temperature  
Mean Temperature 48 °F 44 °F  
Max Temperature 64 °F 57 °F 77 °F (1991)
Min Temperature 31 °F 30 °F 11 °F (1933)
Degree Days  
Heating Degree Days 17 21  
Month to date heating degree days 89 109  
Since 1 July heating degree days 4829 5477  
Cooling Degree Days 0 0  
Month to date cooling degree days 0 0  
Year to date cooling degree days 0 0  
Moisture  
Dew Point 38 °F    
Average Humidity 63    
Maximum Humidity 92    
Minimum Humidity 34    
Precipitation  
Precipitation 0.00 in 0.04 in 1.64 in (1900)
Month to date precipitation 0.14 0.17  
Year to date precipitation 0.51 1.83  
Snow  
Snow 0.00 in 0.20 in 18.00 in (1900)
Month to date snowfall T 1.0  
Since 1 July snowfall 21.7 33.1  
Snow Depth 0.00 in    
Sea Level Pressure  
Sea Level Pressure 29.88 in    
Wind  
Wind Speed 12 mph (ESE)    
Max Wind Speed 26 mph    
Max Gust Speed 32 mph    
Visibility 9 miles    
Events      
T = Trace of Precipitation, MM = Missing Value Source: NWS Daily Summary

Daily Weather History Graph

Daily Weather History Graph

Search for Another Location

Airport or City:

Trip Planner

Search our weather history database for the weather conditions in past years. The results will help you decide how hot, cold, wet, or windy it might be!

Date:

Astronomy

Apr. 05, 2012 Rise Set
Actual Time 6:36 AM MDT 7:26 PM MDT
Civil Twilight 6:09 AM MDT 7:53 PM MDT
Nautical Twilight 5:37 AM MDT 8:25 PM MDT
Astronomical Twilight 5:04 AM MDT 8:59 PM MDT
Moon 6:35 PM MDT (4/5) 5:33 AM MDT (4/5)
Length of Visible Light 13h 44m
Length of Day
12h 50m
Waxing Gibbous, 98% of the Moon is Illuminated
Apr 5
Waxing Gibbous
Apr 6
Full
Apr 13
Last Quarter
Apr 21
New
Apr 29
First Quarter

Hourly Weather History & Observations

Time (MDT) Temp. Windchill Dew Point Humidity Pressure Visibility Wind Dir Wind Speed Gust Speed Precip Events Conditions
12:54 AM 36.0 °F 31.1 °F 33.1 °F 89% 29.88 in 8.0 mi NNE 5.8 mph - N/A   Clear
1:54 AM 36.0 °F 32.1 °F 33.1 °F 89% 29.86 in 10.0 mi NE 4.6 mph - N/A   Clear
2:54 AM 34.0 °F 28.8 °F 30.9 °F 89% 29.86 in 10.0 mi NNE 5.8 mph - N/A   Clear
3:54 AM 34.0 °F 28.0 °F 30.9 °F 89% 29.84 in 10.0 mi NNE 6.9 mph - N/A   Clear
4:54 AM 34.0 °F 29.8 °F 30.9 °F 89% 29.85 in 10.0 mi NNE 4.6 mph - N/A   Clear
5:54 AM 33.1 °F 27.7 °F 30.0 °F 89% 29.88 in 10.0 mi NE 5.8 mph - N/A   Clear
6:54 AM 33.1 °F 26.9 °F 28.0 °F 82% 29.91 in 10.0 mi North 6.9 mph - N/A   Clear
7:54 AM 42.1 °F 39.2 °F 34.0 °F 73% 29.90 in 10.0 mi North 4.6 mph - N/A   Clear
8:54 AM 45.0 °F 39.7 °F 39.9 °F 82% 29.90 in 10.0 mi SE 10.4 mph - N/A   Partly Cloudy
9:54 AM 48.0 °F - 41.0 °F 77% 29.91 in 10.0 mi SSE 6.9 mph - N/A   Partly Cloudy
10:54 AM 54.0 °F - 39.9 °F 59% 29.90 in 10.0 mi SSE 9.2 mph - N/A   Partly Cloudy
11:54 AM 57.0 °F - 37.9 °F 49% 29.88 in 10.0 mi SSE 11.5 mph - N/A   Partly Cloudy
12:54 PM 57.0 °F - 37.9 °F 49% 29.89 in 10.0 mi SE 16.1 mph 20.7 mph N/A   Partly Cloudy
1:54 PM 59.0 °F - 36.0 °F 42% 29.86 in 10.0 mi SE 12.7 mph 20.7 mph N/A   Partly Cloudy
2:54 PM 62.1 °F - 33.1 °F 34% 29.83 in 10.0 mi SSE 18.4 mph 26.5 mph N/A   Partly Cloudy
3:54 PM 61.0 °F - 34.0 °F 36% 29.83 in 10.0 mi SSE 20.7 mph - N/A   Partly Cloudy
4:54 PM 62.1 °F - 37.9 °F 41% 29.83 in 10.0 mi South 19.6 mph - N/A   Partly Cloudy
5:54 PM 60.1 °F - 39.9 °F 47% 29.84 in 10.0 mi SSE 21.9 mph 26.5 mph N/A   Partly Cloudy
6:54 PM 57.9 °F - 42.1 °F 56% 29.86 in 10.0 mi SE 18.4 mph - N/A   Partly Cloudy
7:54 PM 53.6 °F - 44.6 °F 72% 29.93 in 10.0 mi ESE 16.1 mph - N/A   Partly Cloudy
8:54 PM 51.1 °F - 45.0 °F 80% 29.88 in 10.0 mi ESE 17.3 mph - N/A   Mostly Cloudy
9:32 PM 51.8 °F - 44.6 °F 76% 29.97 in 10.0 mi SE 10.4 mph - N/A   Overcast
9:54 PM 50.0 °F - 45.0 °F 83% 29.88 in 9.0 mi SE 11.5 mph - N/A   Overcast
10:19 PM 48.2 °F - 44.6 °F 87% 29.96 in 8.0 mi SE 13.8 mph - N/A   Overcast
10:54 PM 48.9 °F - 45.0 °F 86% 29.85 in 6.0 mi ESE 12.7 mph - N/A   Overcast
11:52 PM 48.2 °F - 44.6 °F 87% 29.96 in 5.0 mi ESE 10.4 mph - N/A   Overcast
11:54 PM 48.0 °F - 44.1 °F 86% 29.83 in 5.0 mi ESE 11.5 mph - N/A   Overcast